カタログに戻る

COSMOS 1191 DEB

運用中HEO
NORAD 13999·DEBRIS·🇷🇺 Russia

打ち上げ Jul 2, 1980 から Plesetsk Cosmodrome

Loading…

次のパス (今後24時間)

TLE

最新Source: Space-Track

元期: Sep 14, 2026, 07:28 UTC

1 13999U 80057G   26257.31146091  .00000874  00000-0  00000-0 0  9997
2 13999  62.6683 298.4761 7238997  26.2307 357.1614  2.01275469331848

AllMySatでCOSMOS 1191 DEBをリアルタイム追跡

Download on the App Store